Volver al catálogo

STARLINK-4414

ActivoComunicacionesSSO
NORAD 53213·PAYLOAD·🇺🇸 United States

Lanzado Jul 22, 2022 desde Vandenberg Space Force Base

Loading…

Próximos Pases (próximas 24 horas)

TLE

ActualizadoSource: CelesTrak SupGP

Época: Sep 14, 2026, 22:01 UTC

1 53213C 22084AA  26257.91784722  .00004751  00000+0  14752-3 0  2577
2 53213  97.2839 312.8616 0001761  92.6124 150.1148 15.33426797    18

Sigue STARLINK-4414 en tiempo real con AllMySat

Download on the App Store